Regional Weather Roundup
Issued by NWS

Home | Current Version | Previous Version | Graphics & Text | Print | Product List | Glossary On
Versions: 1 2 3 4 5 6 7 8 9 10 11 12 13 14 15 16 17 18 19 20 21 22 23 24 25 26 27 28 29 30 31 32 33 34 35 36 37 38 39 40 41 42 43 44 45 46 47 48 49 50
000
ASUS43 KLSX 300510
RWRMO

WEATHER SUMMARY FOR MISSOURI
NATIONAL WEATHER SERVICE SPRINGFIELD MO
1200 AM CDT SAT JUL 30 2016

NOTE: "FAIR" INDICATES FEW OR NO CLOUDS BELOW 12,000 FEET WITH NO
       SIGNIFICANT WEATHER AND/OR OBSTRUCTIONS TO VISIBILITY.
       CURRENT SKY AND/OR WEATHER CONDITIONS ARE NOT AVAILABLE FOR
       CHILLICOTHE AND FARMINGTON.

MOZ001>031-035>038-043-044-053-054-300600-
...NORTHERN AND WESTERN MISSOURI...

CITY           SKY/WX    TMP DP  RH WIND       PRES   REMARKS
KANSAS CTY INT CLEAR     68  59  73 N9        30.02R
KANSAS C DTWN  CLEAR     74  62  66 CALM      30.00R
LEE`S SUMMIT   CLEAR     73  63  70 N5        30.02R
ST JOSEPH      CLEAR     67  62  84 N5        30.02R
CHILLICOTHE      N/A     69  64  84 CALM      30.01S
KIRKSVILLE     CLEAR     65  63  93 NW3       30.00R

$$
MOZ066>068-077>081-088>096-101>105-300600-
...SOUTHWEST MISSOURI...

CITY           SKY/WX    TMP DP  RH WIND       PRES   REMARKS
SPRINGFIELD    CLEAR     73  68  84 CALM      30.01R
JOPLIN         CLEAR     73  70  90 NE3       30.01R
BRANSON        CLOUDY    72  72 100 CALM      30.02R

$$
MOZ032>034-039>042-045>050-055>058-069>072-300600-
...CENTRAL MISSOURI...

CITY           SKY/WX    TMP DP  RH WIND       PRES   REMARKS
COLUMBIA       CLEAR     70  66  87 N3        29.99R
JEFFERSON CITY CLEAR     71  67  87 CALM      29.97R
ROLLA          CLEAR     69  67  93 CALM      29.99R
SEDALIA        CLEAR     73  65  75 CALM      30.01R
WHITEMAN AFB   CLEAR     70  69  98 SW2       29.99R
OSAGE BEACH    CLEAR     72  71  97 CALM      30.00R

$$
MOZ051-052-059>065-300600-
...EAST CENTRAL MISSOURI...

CITY           SKY/WX    TMP DP  RH WIND       PRES   REMARKS
ST LOUIS INTL  PTCLDY    77  67  71 N6        29.96R
SPIRIT OF STL  CLEAR     72  69  90 CALM      29.95R
ST CHARLES     CLEAR     73  70  90 N3        29.94S

$$
MOZ072>076-082>087-097>100-106>115-300600-
...SOUTH CENTRAL AND SOUTHEAST MISSOURI...

CITY           SKY/WX    TMP DP  RH WIND       PRES   REMARKS
CAPE GIRARDEAU CLOUDY    70  68  93 S3        29.95R
FARMINGTON     MOCLDY    73  71  93 CALM      29.98S
POPLAR BLUFF   CLOUDY    71  70  96 SW6       29.97S
WEST PLAINS    CLOUDY    70  67  90 W3        30.02S

$$



USA.gov is the U.S. government's official web portal to all federal, state and local government web resources and services.